[[{"header":{"parameterUnit":"m.s-1","parameterCategory":1,"la1":30.2991,"la2":30.254,"lo1":-89.0895,"lo2":-89.0444,"dy":0.0017,"dx":0.0017,"nx":28,"ny":28,"refTime":"2024-03-19T21:00:00:Z","depth":0,"parameterNumber":2,"parameterNumberName":"U-component_of_WINDS"},"data":[0,0,0,0,0,0,0,0,0,0,0,0,0,0,0,0,0,0,0,0,0,0,0,0,0,0,0,0,0,0,0,0,0,0,0,0,0,0,0,0,0,0,0,0,0,0,0,0,0,0,0,0,0,0,0,0,0,0,0.3286,0.3287,0,0.3336,0.3337,0.3337,0.3368,0.3368,0.3369,0.3369,0.342,0.3421,0.3422,0,0,0,0,0,0,0,0,0,0,0,0,0,0.3217,0.3218,0.3286,0.3287,0.3287,0.3336,0.3337,0.3337,0.3368,0.3368,0.3369,0.3369,0.3419,0.3421,0.3422,0,0,0,0,0,0,0,0,0,0,0,0,0,0.3255,0.3218,0.3286,0.3309,0.3311,0.3336,0.3337,0.3337,0.3368,0.3368,0.3369,0.3369,0.3419,0.3421,0.3422,0.3428,0,0,0.3428,0.3429,0,0,0,0,0,0,0,0,0.3253,0.3257,0.3305,0.3307,0.331,0.3346,0.3331,0.3368,0.3368,0.3347,0.3369,0.3369,0.3395,0.3399,0.3408,0.3431,0.3433,0.3428,0.3429,0.343,0.343,0,0,0,0,0,0,0,0.325,0.3255,0.3306,0.3305,0.3309,0.3316,0.3322,0.3338,0.3369,0.3348,0.3351,0.3356,0.3397,0.3406,0.3409,0.3434,0.3428,0.343,0.3431,0.3431,0.3463,0.3462,0,0,0,0,0,0,0.3244,0.3253,0.3304,0.3307,0.3281,0.3317,0.3323,0.3334,0.3369,0.3374,0.3356,0.3358,0.3403,0.3407,0.3411,0.3419,0.343,0.3432,0.3433,0.3463,0.3463,0.3462,0,0,0,0,0,0,0.3242,0.3248,0.3302,0.3281,0.3288,0.3318,0.333,0.3335,0.3344,0.3374,0.338,0.336,0.3403,0.3408,0.3424,0.3422,0.3432,0.3434,0.3463,0.3463,0.3463,0.3436,0,0,0,0,0,0,0.324,0.3247,0.325,0.3281,0.3289,0.3314,0.333,0.3336,0.3347,0.335,0.3379,0.3385,0.3404,0.3421,0.3425,0.3424,0.3436,0.3464,0.3463,0.3463,0.3438,0.3435,0.3433,0,0,0,0,0,0.3238,0.3241,0.325,0.3256,0.3294,0.3314,0.3319,0.3341,0.3347,0.335,0.3369,0.3384,0.3421,0.3422,0.3427,0.3427,0.3464,0.3463,0.3463,0.3439,0.3436,0.3433,0,0,0,0,0,0,0.321,0.3246,0.3256,0.327,0.3289,0.3319,0.3324,0.3337,0.3355,0.3356,0.3382,0.3389,0.3401,0.3416,0.3416,0.3434,0.3444,0.3444,0.3424,0.3421,0.3419,0.3415,0.3437,0,0,0,0,0,0.3206,0.322,0.325,0.3259,0.3268,0.3294,0.3304,0.3319,0.3339,0.3347,0.3368,0.3387,0.3403,0.3413,0.3429,0.344,0.3446,0.3442,0.344,0.3438,0.3438,0.3443,0.3441,0.3461,0.3461,0.3461,0,0,0.3197,0.3218,0.3225,0.3254,0.3271,0.3284,0.3301,0.3314,0.3324,0.335,0.3365,0.338,0.3403,0.3415,0.3422,0.3428,0.3434,0.3437,0.3435,0.3436,0.3442,0.344,0.3439,0.346,0.346,0.346,0,0,0.3188,0.3205,0.3214,0.323,0.3254,0.3271,0.3273,0.3302,0.3312,0.3328,0.3347,0.3359,0.3386,0.3401,0.3413,0.3407,0.3421,0.3412,0.34,0.3405,0.3403,0.3402,0.3399,0.3398,0.3412,0.3411,0.3411,0,0.3173,0.3194,0.3217,0.3229,0.3241,0.3264,0.3273,0.3287,0.3315,0.3322,0.3329,0.3362,0.338,0.3395,0.3393,0.3402,0.3405,0.3408,0.3402,0.3401,0.34,0.3397,0.3396,0.341,0.341,0.341,0.3411,0,0.3175,0.3189,0.3194,0.322,0.3232,0.3243,0.3266,0.3276,0.3289,0.3305,0.332,0.3341,0.3362,0.3366,0.338,0.3384,0.3386,0.3397,0.3408,0.3396,0.3394,0.3393,0.3408,0.3409,0.3409,0.3409,0,0,0.3151,0.3189,0.319,0.3201,0.3229,0.324,0.3251,0.3271,0.3278,0.3296,0.3305,0.3327,0.3336,0.3349,0.3364,0.3369,0.3361,0.3378,0.3379,0.3374,0.3365,0.3356,0.3355,0.337,0.337,0.337,0.3363,0,0.3145,0.3166,0.3186,0.32,0.3212,0.3234,0.3243,0.326,0.3275,0.3288,0.3305,0.3319,0.3331,0.3338,0.3343,0.3361,0.336,0.3362,0.3379,0.3379,0.3372,0.3354,0.3346,0.3338,0.3362,0.3362,0.3362,0,0.3142,0.3158,0.3173,0.3198,0.3204,0.3212,0.3231,0.3243,0.3263,0.3273,0.3286,0.3302,0.3314,0.3323,0.3339,0.334,0.3348,0.3357,0.3357,0.336,0.337,0.3355,0.3336,0.3334,0.3361,0.3361,0.3361,0,0.3121,0.3148,0.3159,0.3169,0.3199,0.3203,0.3216,0.3236,0.3246,0.3262,0.3269,0.3286,0.3296,0.3309,0.3328,0.3333,0.3342,0.3353,0.335,0.3349,0.3351,0.335,0.3332,0.3356,0.3356,0.3356,0.3357,0,0.3113,0.3121,0.3151,0.3158,0.3167,0.3189,0.3197,0.3212,0.3229,0.3239,0.3258,0.3267,0.3293,0.3304,0.332,0.333,0.3334,0.3342,0.3346,0.334,0.3339,0.3346,0.3347,0.3356,0.3356,0.3356,0.3356,0,0.3092,0.3112,0.3126,0.3153,0.316,0.3165,0.3188,0.3195,0.3211,0.3223,0.3227,0.3251,0.3265,0.3286,0.3307,0.3317,0.3324,0.3331,0.3318,0.332,0.3316,0.3315,0.33,0.3299,0.3325,0.3324,0.3324,0,0.3085,0.3091,0.3118,0.3126,0.3138,0.315,0.316,0.3182,0.3192,0.3214,0.3218,0.3234,0.3248,0.3269,0.3289,0.3304,0.3311,0.3305,0.3314,0.3307,0.331,0.3309,0.3309,0.3302,0.3302,0.3302,0.3301,0,0.307,0.3079,0.3093,0.311,0.3121,0.3136,0.3151,0.3156,0.3181,0.319,0.3205,0.3216,0.3236,0.3251,0.3269,0.3281,0.3295,0.3298,0.3298,0.3292,0.3284,0.3287,0.3311,0.3299,0.3299,0.3299,0.3299,0.3299,0.3055,0.3062,0.3081,0.3095,0.3109,0.3122,0.313,0.3146,0.3159,0.3177,0.3189,0.3202,0.3221,0.3246,0.3257,0.3268,0.3274,0.3274,0.3274,0.3274,0.3271,0.3282,0.3271,0.3271,0.3272,0.3272,0.3272,0,0.3041,0.3054,0.3067,0.3087,0.3098,0.311,0.3127,0.3135,0.3146,0.3162,0.3175,0.3191,0.3205,0.3225,0.324,0.3245,0.3251,0.3248,0.3248,0.325,0.3265,0.3264,0.3242,0.3242,0.3242,0.3242,0.3242,0.3242,0.3034,0.3045,0.3056,0.3073,0.3087,0.31,0.3109,0.312,0.3133,0.315,0.3162,0.3174,0.3191,0.3208,0.3221,0.3226,0.323,0.3225,0.3232,0.3246,0.3249,0.3252,0.325,0.3226,0.3226,0.3216,0.3215,0.3215]},{"header":{"parameterUnit":"m.s-1","parameterCategory":1,"la1":30.2991,"la2":30.254,"lo1":-89.0895,"lo2":-89.0444,"dy":0.0017,"dx":0.0017,"nx":28,"ny":28,"refTime":"2024-03-19T21:00:00:Z","depth":0,"parameterNumber":3,"parameterNumberName":"V-component_of_WINDS"},"data":[0,0,0,0,0,0,0,0,0,0,0,0,0,0,0,0,0,0,0,0,0,0,0,0,0,0,0,0,0,0,0,0,0,0,0,0,0,0,0,0,0,0,0,0,0,0,0,0,0,0,0,0,0,0,0,0,0,0,2.724,2.724,0,2.7227,2.7227,2.7227,2.7241,2.7241,2.7242,2.7242,2.7227,2.7226,2.7225,0,0,0,0,0,0,0,0,0,0,0,0,0,2.7273,2.7273,2.724,2.724,2.724,2.7227,2.7227,2.7227,2.7241,2.7241,2.7242,2.7243,2.7227,2.7226,2.7225,0,0,0,0,0,0,0,0,0,0,0,0,0,2.7259,2.7272,2.724,2.7245,2.7245,2.7227,2.7227,2.7227,2.7241,2.7241,2.7242,2.7243,2.7227,2.7226,2.7225,2.72,0,0,2.722,2.722,0,0,0,0,0,0,0,0,2.726,2.7258,2.7245,2.7245,2.7245,2.7237,2.7233,2.7218,2.724,2.7242,2.7242,2.7243,2.7229,2.7228,2.7223,2.7199,2.7198,2.722,2.7219,2.7219,2.7218,0,0,0,0,0,0,0,2.7261,2.7259,2.7235,2.7244,2.7245,2.7247,2.7246,2.723,2.7231,2.7242,2.7243,2.7242,2.7229,2.7225,2.7223,2.7198,2.722,2.7219,2.7218,2.7218,2.7151,2.715,0,0,0,0,0,0,2.7262,2.726,2.7235,2.7234,2.7255,2.7246,2.7245,2.7238,2.7231,2.7231,2.7241,2.7242,2.7227,2.7225,2.7223,2.7192,2.7219,2.7217,2.7217,2.7152,2.7151,2.715,0,0,0,0,0,0,2.7263,2.726,2.7236,2.7247,2.7244,2.7244,2.7237,2.7238,2.7233,2.7231,2.7231,2.7236,2.7227,2.7224,2.7205,2.7192,2.7217,2.7216,2.7153,2.7152,2.7151,2.7131,0,0,0,0,0,0,2.7264,2.726,2.7251,2.7247,2.7244,2.7219,2.7236,2.7237,2.7231,2.7233,2.7226,2.7226,2.7228,2.7207,2.7204,2.719,2.7215,2.7155,2.7153,2.7151,2.7133,2.7129,2.7126,0,0,0,0,0,2.7265,2.7246,2.7251,2.7248,2.7233,2.7219,2.7217,2.722,2.723,2.722,2.7219,2.7226,2.7194,2.7205,2.7201,2.7187,2.7155,2.7153,2.7151,2.7135,2.713,2.7126,0,0,0,0,0,0,2.7248,2.7246,2.7251,2.723,2.7225,2.7221,2.721,2.7215,2.7206,2.7208,2.7212,2.721,2.7189,2.7187,2.7199,2.7162,2.7176,2.7173,2.7165,2.716,2.7157,2.7158,2.7213,0,0,0,0,0,2.7242,2.7231,2.723,2.7212,2.7209,2.7209,2.7203,2.7207,2.72,2.7198,2.7195,2.7188,2.7176,2.7168,2.7157,2.7133,2.7131,2.7121,2.7118,2.7115,2.7112,2.7097,2.7093,2.7143,2.7143,2.7143,0,0,2.7229,2.7226,2.7219,2.7208,2.7204,2.7192,2.7207,2.7194,2.7185,2.7196,2.7177,2.7175,2.7167,2.7145,2.7135,2.7141,2.7098,2.7112,2.711,2.7109,2.7095,2.709,2.7086,2.7142,2.7142,2.7142,0,0,2.7199,2.7197,2.7181,2.7177,2.7171,2.7172,2.7168,2.7163,2.7162,2.7144,2.7151,2.714,2.712,2.7114,2.7108,2.7076,2.7081,2.7072,2.7053,2.7039,2.7035,2.7032,2.7019,2.7014,2.7069,2.7069,2.7069,0,2.7184,2.7167,2.7172,2.7158,2.7152,2.7162,2.7146,2.7141,2.7131,2.7126,2.7135,2.7109,2.7105,2.7081,2.7073,2.7068,2.7063,2.7072,2.7036,2.7032,2.7029,2.7016,2.7012,2.7068,2.7068,2.7068,2.7068,0,2.7147,2.7135,2.7123,2.7114,2.7107,2.7092,2.7094,2.7086,2.7089,2.7089,2.7069,2.7064,2.7052,2.7047,2.705,2.7023,2.7027,2.7035,2.7049,2.7023,2.7011,2.7006,2.7066,2.7067,2.7067,2.7067,0,0,2.7106,2.71,2.7096,2.7091,2.7085,2.7075,2.706,2.7049,2.7041,2.7034,2.702,2.7003,2.7011,2.7004,2.7007,2.6994,2.6967,2.7004,2.7004,2.6996,2.6935,2.6927,2.6922,2.6971,2.697,2.697,2.6935,0,2.7076,2.705,2.7054,2.7028,2.7016,2.7026,2.7012,2.7006,2.7005,2.6994,2.6992,2.698,2.6991,2.6987,2.6976,2.6973,2.6954,2.6976,2.6957,2.6956,2.6957,2.6916,2.6909,2.6876,2.693,2.693,2.6929,0,2.7036,2.7028,2.7002,2.6996,2.6992,2.6979,2.6969,2.6959,2.6952,2.6952,2.6944,2.6949,2.6932,2.6947,2.6923,2.6937,2.693,2.6927,2.6926,2.6923,2.694,2.6911,2.6866,2.686,2.6922,2.6923,2.6923,0,2.7007,2.699,2.6971,2.6967,2.6961,2.6952,2.6949,2.6943,2.6936,2.6926,2.6921,2.691,2.6903,2.6894,2.6894,2.6906,2.6869,2.6885,2.6868,2.6867,2.6859,2.6859,2.681,2.6856,2.6856,2.6856,2.6856,0,2.6972,2.6955,2.6958,2.6946,2.6927,2.6932,2.6912,2.691,2.6905,2.6892,2.6899,2.6887,2.689,2.6877,2.6877,2.6856,2.6854,2.6852,2.6852,2.6851,2.6851,2.6845,2.6847,2.6855,2.6855,2.6855,2.6856,0,2.6935,2.6937,2.6918,2.6914,2.6912,2.6898,2.6894,2.6882,2.6882,2.6866,2.6862,2.6861,2.6847,2.6847,2.683,2.683,2.6804,2.6808,2.6807,2.6807,2.6789,2.679,2.6734,2.6726,2.6778,2.6778,2.6777,0,2.6912,2.6899,2.6894,2.6886,2.6883,2.6871,2.6863,2.6867,2.6859,2.6849,2.6838,2.6825,2.6814,2.679,2.6787,2.6774,2.6776,2.6757,2.6774,2.6772,2.6774,2.6774,2.6772,2.6753,2.6753,2.6752,2.6752,0,2.687,2.6871,2.6861,2.6851,2.6842,2.6834,2.6826,2.6819,2.6822,2.6812,2.6798,2.6789,2.6772,2.6758,2.6745,2.6741,2.6746,2.6747,2.6742,2.674,2.6739,2.6738,2.6796,2.6748,2.6748,2.6749,2.6749,2.6749,2.6838,2.6827,2.6821,2.6809,2.6804,2.6797,2.6785,2.6784,2.6772,2.6759,2.6762,2.6745,2.6737,2.6721,2.6715,2.6701,2.6708,2.6701,2.6699,2.6697,2.6694,2.6742,2.6699,2.6699,2.6699,2.67,2.67,0,2.6795,2.6792,2.6781,2.6771,2.6761,2.6768,2.676,2.6751,2.6736,2.6729,2.6718,2.6701,2.6687,2.6683,2.6669,2.6658,2.666,2.6655,2.6655,2.6653,2.669,2.6695,2.6653,2.6653,2.6653,2.6653,2.6653,2.6653,2.6772,2.6753,2.6753,2.6731,2.6728,2.6712,2.6707,2.6699,2.6693,2.6674,2.6663,2.6661,2.6654,2.664,2.6627,2.6626,2.6619,2.6612,2.6612,2.6646,2.6651,2.6655,2.666,2.6611,2.6611,2.6576,2.6576,2.6576]}]]